{"data":{"norad_id":37749,"epoch":"2026-09-20T00:42:21.457728Z","epoch_age_seconds":62498,"freshness":"FRESH","line1":"1 37749U 11035B   26263.02941502 -.00000202  00000+0  00000+0 0  9995","line2":"2 37749   0.0168 347.8265 0001270 242.5162 225.7147  1.00271977 54353","mean_motion":1.00271977,"eccentricity":0.000127,"inclination_deg":0.0168,"raan_deg":347.8265,"arg_perigee_deg":242.5162,"mean_anomaly_deg":225.7147,"bstar":0,"rev_number":5435,"period_min":1436.0941542022,"perigee_km":35781.186222583,"apogee_km":35791.89605083,"semimajor_km":42164.678136707,"source":"CELESTRAK","updated_at":"2026-09-20T09:00:35.169295Z"}}